Terminal Aerodrome Forecast
Issued by NWS Blacksburg, VA

Home | Current Version | Previous Version | Text Only | Print | Product List | Glossary On
Versions: 1 2 3 4 5 6 7 8 9 10 11 12 13 14 15 16 17 18 19 20 21 22 23 24 25 26 27 28 29 30 31 32 33 34 35 36 37 38 39 40 41 42 43 44 45 46 47
000
FTUS41 KRNK 290559 AAA
TAFROA
TAF AMD
KROA 290559Z 2906/3006 13005KT P6SM BKN008 OVC014
      TEMPO 2909/2912 3SM BR SCT015
     FM291400 20005KT P6SM SCT025
     FM292100 17005KT P6SM VCTS BKN045CB
     FM300000 17003KT P6SM SCT050 BKN250=

USA.gov is the U.S. government's official web portal to all federal, state and local government web resources and services.